| time (UTC) | temp C | wind direction | speed KPH | gust KPH | rain 1hr cm | rain 24hr cm | rain mn cm | humidity % | barometer mb |
| 20260507000047 | 13 | 191 | 3.2 | 9.7 | 0.00 | 0.20 | 0.20 | 97 | 1007.3 |
| 20260506234545 | 13 | 172 | 1.6 | 16.1 | 0.00 | 0.20 | 0.20 | 97 | 1007.3 |
| 20260506233049 | 13 | 130 | 4.8 | 19.3 | 0.00 | 0.20 | 0.20 | 97 | 1007.2 |
| 20260506231543 | 13 | 163 | 3.2 | 14.5 | 0.00 | 0.20 | 0.20 | 97 | 1007.1 |
| 20260506230043 | 13 | 189 | 3.2 | 11.3 | 0.00 | 0.20 | 0.20 | 96 | 1007.0 |
| 20260506224542 | 13 | 138 | 3.2 | 8.0 | 0.00 | 0.20 | 0.20 | 96 | 1006.9 |
| 20260506223041 | 13 | 150 | 4.8 | 14.5 | 0.03 | 0.20 | 0.20 | 96 | 1006.9 |
| 20260506221540 | 13 | 212 | 3.2 | 16.1 | 0.03 | 0.20 | 0.20 | 96 | 1007.0 |
| 20260506220046 | 13 | 137 | 1.6 | 12.9 | 0.05 | 0.20 | 0.20 | 96 | 1006.9 |
| 20260506214549 | 13 | 151 | 1.6 | 12.9 | 0.05 | 0.20 | 0.20 | 96 | 1006.9 |
| 20260506213036 | 13 | 126 | 4.8 | 14.5 | 0.05 | 0.18 | 0.18 | 96 | 1006.9 |
| 20260506211535 | 13 | 163 | 4.8 | 14.5 | 0.05 | 0.18 | 0.18 | 95 | 1007.1 |
| 20260506210035 | 13 | 175 | 1.6 | 14.5 | 0.03 | 0.15 | 0.15 | 95 | 1007.2 |
| 20260506204532 | 13 | 165 | 0.0 | 11.3 | 0.03 | 0.15 | 0.15 | 95 | 1007.3 |
| 20260506203032 | 13 | 128 | 4.8 | 14.5 | 0.00 | 0.13 | 0.13 | 95 | 1007.5 |
| 20260506201533 | 13 | 191 | 8.0 | 17.7 | 0.00 | 0.13 | 0.13 | 95 | 1007.3 |
| 20260506200030 | 13 | 178 | 3.2 | 17.7 | 0.00 | 0.13 | 0.13 | 95 | 1007.6 |
| 20260506194529 | 13 | 209 | 6.4 | 25.7 | 0.03 | 0.13 | 0.13 | 95 | 1007.7 |
| 20260506193027 | 13 | 124 | 3.2 | 17.7 | 0.08 | 0.13 | 0.13 | 94 | 1007.8 |
| 20260506191526 | 13 | 186 | 9.7 | 20.9 | 0.10 | 0.13 | 0.13 | 93 | 1008.1 |
| 20260506190026 | 13 | 169 | 4.8 | 16.1 | 0.10 | 0.13 | 0.13 | 93 | 1008.0 |
| 20260506184523 | 14 | 141 | 1.6 | 16.1 | 0.10 | 0.10 | 0.10 | 92 | 1008.3 |
| 20260506183022 | 14 | 56 | 1.6 | 14.5 | 0.05 | 0.05 | 0.05 | 91 | 1008.0 |
| 20260506181522 | 15 | 78 | 3.2 | 19.3 | 0.03 | 0.03 | 0.03 | 89 | 1008.4 |
| 20260506180018 | 15 | 150 | 3.2 | 12.9 | 0.03 | 0.03 | 0.03 | 87 | 1008.8 |
| 20260506174517 | 15 | 151 | 3.2 | 22.5 | 0.00 | 0.00 | 0.00 | 85 | 1009.1 |
| 20260506173015 | 16 | 163 | 4.8 | 22.5 | 0.00 | 0.00 | 0.00 | 83 | 1009.2 |
| 20260506171519 | 16 | 133 | 8.0 | 22.5 | 0.00 | 0.00 | 0.00 | 80 | 1009.3 |
| 20260506170012 | 16 | 192 | 11.3 | 22.5 | 0.00 | 0.00 | 0.00 | 80 | 1009.6 |
| 20260506164511 | 17 | 188 | 8.0 | 32.2 | 0.00 | 0.00 | 0.00 | 79 | 1009.6 |
| 20260506163011 | 17 | 97 | 4.8 | 29.0 | 0.00 | 0.00 | 0.00 | 78 | 1009.6 |
| 20260506161511 | 17 | 185 | 9.7 | 30.6 | 0.00 | 0.00 | 0.00 | 78 | 1009.8 |
| 20260506160013 | 17 | 115 | 8.0 | 27.4 | 0.00 | 0.00 | 0.00 | 77 | 1010.0 |
| 20260506154508 | 18 | 107 | 4.8 | 22.5 | 0.00 | 0.00 | 0.00 | 75 | 1009.9 |
| 20260506153010 | 18 | 132 | 3.2 | 20.9 | 0.00 | 0.00 | 0.00 | 74 | 1009.8 |
| 20260506151507 | 18 | 194 | 6.4 | 22.5 | 0.00 | 0.00 | 0.00 | 73 | 1009.8 |
| 20260506150005 | 19 | 221 | 8.0 | 19.3 | 0.00 | 0.00 | 0.00 | 73 | 1010.0 |
| 20260506144507 | 19 | 119 | 8.0 | 17.7 | 0.00 | 0.00 | 0.00 | 74 | 1010.1 |
| 20260506143004 | 18 | 169 | 4.8 | 20.9 | 0.00 | 0.00 | 0.00 | 74 | 1010.1 |
| 20260506141559 | 18 | 161 | 4.8 | 22.5 | 0.00 | 0.00 | 0.00 | 76 | 1010.3 |
| 20260506140057 | 17 | 148 | 4.8 | 25.7 | 0.00 | 0.00 | 0.00 | 77 | 1010.2 |
| 20260506134600 | 17 | 144 | 9.7 | 27.4 | 0.00 | 0.00 | 0.00 | 77 | 1010.2 |
| 20260506133059 | 17 | 142 | 8.0 | 17.7 | 0.00 | 0.00 | 0.00 | 78 | 1009.9 |
| 20260506131551 | 17 | 206 | 8.0 | 20.9 | 0.00 | 0.00 | 0.00 | 80 | 1010.1 |
| 20260506130051 | 17 | 245 | 4.8 | 19.3 | 0.00 | 0.00 | 0.00 | 81 | 1010.3 |
| 20260506124547 | 17 | 69 | 6.4 | 19.3 | 0.00 | 0.00 | 0.00 | 83 | 1010.7 |
| 20260506123043 | 15 | 96 | 4.8 | 17.7 | 0.00 | 0.00 | 0.00 | 87 | 1010.7 |
| 20260506121542 | 15 | 198 | 4.8 | 22.5 | 0.00 | 0.00 | 0.00 | 88 | 1010.8 |
| 20260506120043 | 15 | 172 | 6.4 | 20.9 | 0.00 | 0.00 | 0.00 | 88 | 1010.7 |
| 20260506114540 | 14 | 136 | 11.3 | 27.4 | 0.00 | 0.00 | 0.00 | 89 | 1010.7 |
| 20260506113039 | 14 | 163 | 4.8 | 20.9 | 0.00 | 0.00 | 0.00 | 91 | 1010.8 |
| 20260506111537 | 13 | 200 | 8.0 | 27.4 | 0.00 | 0.00 | 0.00 | 92 | 1010.9 |
| 20260506110039 | 13 | 160 | 6.4 | 22.5 | 0.00 | 0.00 | 0.00 | 92 | 1010.8 |
| 20260506104535 | 13 | 116 | 3.2 | 16.1 | 0.00 | 0.00 | 0.00 | 92 | 1010.8 |
| 20260506103034 | 13 | 166 | 8.0 | 19.3 | 0.00 | 0.00 | 0.00 | 92 | 1010.7 |
| 20260506101532 | 13 | 135 | 8.0 | 16.1 | 0.00 | 0.00 | 0.00 | 92 | 1010.6 |
| 20260506100031 | 13 | 153 | 6.4 | 19.3 | 0.00 | 0.00 | 0.00 | 91 | 1010.6 |
| 20260506094529 | 13 | 191 | 3.2 | 16.1 | 0.00 | 0.00 | 0.00 | 91 | 1010.6 |
| 20260506093034 | 13 | 136 | 0.0 | 16.1 | 0.00 | 0.00 | 0.00 | 90 | 1010.7 |
| 20260506091527 | 13 | 180 | 8.0 | 19.3 | 0.00 | 0.00 | 0.00 | 90 | 1010.8 |
| 20260506090026 | 13 | 202 | 9.7 | 19.3 | 0.00 | 0.00 | 0.00 | 90 | 1010.9 |
| 20260506084532 | 13 | 115 | 8.0 | 17.7 | 0.00 | 0.00 | 0.00 | 89 | 1010.8 |
| 20260506083020 | 13 | 209 | 4.8 | 24.1 | 0.00 | 0.00 | 0.00 | 89 | 1010.8 |
| 20260506081518 | 13 | 182 | 6.4 | 19.3 | 0.00 | 0.00 | 0.00 | 89 | 1010.9 |
| 20260506073011 | 13 | 129 | 4.8 | 16.1 | 0.00 | 0.00 | 0.00 | 87 | 1010.8 |
| 20260506071509 | 13 | 136 | 4.8 | 27.4 | 0.00 | 0.00 | 0.00 | 87 | 1010.9 |
| 20260506061501 | 14 | 138 | 9.7 | 22.5 | 0.00 | 0.00 | 0.00 | 85 | 1010.9 |
| 20260506044550 | 15 | 168 | 8.0 | 19.3 | 0.00 | 0.00 | 0.00 | 82 | 1011.6 |
| 20260506043042 | 15 | 197 | 8.0 | 20.9 | 0.00 | 0.00 | 0.00 | 81 | 1011.7 |
| 20260506041549 | 15 | 188 | 9.7 | 22.5 | 0.00 | 0.00 | 0.00 | 80 | 1011.5 |
| 20260506040039 | 15 | 207 | 4.8 | 25.7 | 0.00 | 0.00 | 0.00 | 79 | 1011.5 |
| 20260506034533 | 15 | 198 | 8.0 | 25.7 | 0.00 | 0.00 | 0.00 | 78 | 1011.6 |
| 20260506033030 | 16 | 226 | 4.8 | 19.3 | 0.00 | 0.00 | 0.00 | 76 | 1011.4 |
| 20260506031530 | 16 | 153 | 9.7 | 37.0 | 0.00 | 0.00 | 0.00 | 74 | 1011.3 |
| 20260506030028 | 16 | 158 | 9.7 | 24.1 | 0.00 | 0.00 | 0.00 | 73 | 1011.3 |
| 20260506024527 | 16 | 157 | 8.0 | 22.5 | 0.00 | 0.00 | 0.00 | 74 | 1011.3 |
| 20260506023025 | 16 | 181 | 9.7 | 22.5 | 0.00 | 0.00 | 0.00 | 73 | 1011.2 |
| 20260506021525 | 16 | 192 | 4.8 | 19.3 | 0.00 | 0.00 | 0.00 | 74 | 1011.2 |
| 20260506020022 | 16 | 146 | 9.7 | 16.1 | 0.00 | 0.00 | 0.00 | 75 | 1011.2 |
| 20260506014521 | 15 | 123 | 4.8 | 17.7 | 0.00 | 0.00 | 0.00 | 74 | 1011.2 |
| 20260506013018 | 16 | 164 | 6.4 | 24.1 | 0.00 | 0.00 | 0.00 | 74 | 1011.1 |
| 20260506011535 | 16 | 196 | 6.4 | 30.6 | 0.00 | 0.00 | 0.00 | 74 | 1010.9 |
| 20260506010014 | 16 | 220 | 4.8 | 19.3 | 0.00 | 0.00 | 0.00 | 73 | 1010.7 |
| 20260506004525 | 16 | 133 | 4.8 | 20.9 | 0.00 | 0.00 | 0.00 | 73 | 1010.6 |
| 20260506003009 | 16 | 173 | 6.4 | 20.9 | 0.00 | 0.00 | 0.00 | 72 | 1010.4 |
| 20260506001507 | 16 | 153 | 6.4 | 17.7 | 0.00 | 0.00 | 0.00 | 71 | 1010.2 |